�N����,����,�~����,�C��,���x,�C��,����,���ϕ���,�ő�u�ԕ���,�ő厞����,���˗�,�I�_���x,�n�����x,�ő啗���N��,DTYPE
"20/10/29","00:10",0.0,11.7,92.0,1014.9,291.2,1.1,1.3,321.3,0.00,10.5,15.9,"00:01:52",1
"20/10/29","00:20",0.0,12.0,92.2,1014.9,285.2,1.2,1.6,312.9,0.00,10.8,16.0,"00:14:48",1
"20/10/29","00:30",0.0,12.1,92.2,1014.9,313.9,1.0,1.8,321.4,0.00,10.9,15.7,"00:23:34",1
"20/10/29","00:40",0.0,11.9,92.4,1015.2,317.9,1.3,1.8,324.1,0.00,10.7,15.7,"00:33:36",1
"20/10/29","00:50",0.0,11.6,92.5,1015.2,302.2,1.1,1.7,326.7,0.00,10.5,15.6,"00:41:28",1
"20/10/29","01:00",0.0,11.2,92.7,1015.2,298.9,0.6,1.4,314.5,0.00,10.1,15.6,"00:56:44",1
"20/10/29","01:10",0.0,11.0,93.0,1014.9,302.3,1.0,1.6,319.5,0.00,10.0,15.6,"01:00:48",1
"20/10/29","01:20",0.0,11.0,93.3,1015.2,302.2,0.8,1.6,311.8,0.00,10.0,15.4,"01:17:04",1
"20/10/29","01:30",0.0,11.3,93.4,1014.9,319.6,1.1,1.8,308.8,0.00,10.3,15.7,"01:24:16",1
"20/10/29","01:40",0.0,11.4,93.4,1014.9,303.2,1.0,1.6,319.4,0.00,10.4,15.7,"01:39:06",1
"20/10/29","01:50",0.0,11.5,93.5,1014.9,321.6,1.2,1.8,319.4,0.00,10.5,15.5,"01:41:36",1
"20/10/29","02:00",0.0,11.3,93.6,1015.4,301.2,0.7,1.7,293.9,0.00,10.3,15.5,"01:59:00",1
"20/10/29","02:10",0.0,11.2,93.7,1014.9,298.2,1.1,1.3,312.1,0.00,10.3,15.5,"02:04:48",1
"20/10/29","02:20",0.0,11.0,93.9,1015.2,313.4,0.7,1.4,326.2,0.00,10.1,15.3,"02:13:20",1
"20/10/29","02:30",0.0,11.2,94.2,1015.6,315.2,1.0,2.1,319.1,0.00,10.3,15.3,"02:23:58",1
"20/10/29","02:40",0.0,11.5,94.2,1015.2,302.3,1.1,1.6,279.1,0.00,10.6,15.3,"02:34:02",1
"20/10/29","02:50",0.0,12.2,94.2,1015.4,300.7,1.5,2.4,317.2,0.00,11.3,15.3,"02:42:24",1
"20/10/29","03:00",0.0,12.4,94.0,1015.2,296.8,1.2,2.6,312.2,0.00,11.5,15.4,"02:53:32",1
"20/10/29","03:10",0.0,12.4,94.1,1015.2,297.6,1.3,2.4,296.2,0.00,11.5,15.2,"03:05:40",1
"20/10/29","03:20",0.0,12.3,94.2,1015.4,284.8,1.0,1.6,239.2,0.00,11.4,15.3,"03:11:28",1
"20/10/29","03:30",0.0,12.2,94.3,1015.2,306.5,0.6,1.2,294.5,0.00,11.4,15.4,"03:20:16",1
"20/10/29","03:40",0.0,12.1,94.4,1015.4,339.3,0.6,2.0,332.7,0.00,11.3,15.2,"03:31:22",1
"20/10/29","03:50",0.0,11.7,94.4,1015.4,266.2,0.5,1.2,337.4,0.00,10.9,15.2,"03:40:16",1
"20/10/29","04:00",0.0,11.4,94.7,1015.4,300.4,1.1,2.0,309.4,0.00,10.6,15.3,"03:55:14",1
"20/10/29","04:10",0.0,11.0,94.8,1015.4,311.9,1.0,1.6,321.7,0.00,10.2,15.2,"04:07:12",1
"20/10/29","04:20",0.0,10.6,94.9,1015.9,299.6,1.0,1.8,327.2,0.00,9.9,15.2,"04:17:20",1
"20/10/29","04:30",0.0,10.4,95.2,1015.4,309.6,1.2,1.8,322.7,0.00,9.7,14.9,"04:20:02",1
"20/10/29","04:40",0.0,10.2,95.3,1015.9,311.7,1.2,2.0,327.0,0.00,9.5,14.8,"04:37:44",1
"20/10/29","04:50",0.0,10.0,95.4,1015.9,305.4,1.3,2.2,323.7,0.00,9.3,15.1,"04:48:08",1
"20/10/29","05:00",0.0,9.9,95.5,1015.6,302.3,1.0,1.3,317.7,0.00,9.3,14.7,"04:55:12",1
"20/10/29","05:10",0.0,9.6,95.6,1015.9,289.4,0.8,1.3,253.0,0.00,9.0,14.7,"05:09:20",1
"20/10/29","05:20",0.0,9.5,95.8,1015.9,298.5,1.2,2.1,324.4,0.00,8.9,14.6,"05:12:56",1
"20/10/29","05:30",0.0,9.2,95.8,1015.6,291.8,1.2,2.1,318.2,0.00,8.6,14.6,"05:24:40",1
"20/10/29","05:40",0.0,9.1,95.9,1015.6,289.4,1.0,1.8,318.7,0.00,8.5,14.6,"05:30:16",1
"20/10/29","05:50",0.0,9.3,96.1,1015.9,295.5,0.8,1.9,313.8,0.00,8.8,14.4,"05:45:20",1
"20/10/29","06:00",0.0,9.4,96.1,1015.9,299.1,1.3,2.2,327.5,0.00,8.9,14.5,"05:57:32",1
"20/10/29","06:10",0.0,9.5,96.2,1015.9,323.8,1.6,2.7,312.7,0.00,9.0,14.5,"06:02:24",1
"20/10/29","06:20",0.0,9.5,96.2,1016.1,312.7,0.7,1.7,272.0,0.00,9.0,14.6,"06:12:24",1
"20/10/29","06:30",0.0,9.4,96.2,1016.1,291.9,1.0,2.5,318.9,0.00,8.9,14.5,"06:23:52",1
"20/10/29","06:40",0.0,9.4,96.4,1016.1,296.1,1.2,1.7,266.7,0.00,8.9,14.4,"06:32:56",1
"20/10/29","06:50",0.0,9.5,96.4,1015.6,307.1,1.2,1.9,316.9,0.00,9.0,14.3,"06:47:14",1
"20/10/29","07:00",0.0,9.5,96.6,1016.4,287.1,1.1,2.4,324.8,0.00,9.0,14.3,"06:59:44",1
"20/10/29","07:10",0.0,9.9,96.7,1016.1,310.9,1.3,1.9,319.3,0.01,9.4,14.4,"07:05:04",1
"20/10/29","07:20",0.0,10.5,96.7,1016.6,306.8,1.2,2.0,320.2,0.02,10.0,14.4,"07:14:40",1
"20/10/29","07:30",0.0,11.1,96.6,1016.8,217.7,0.3,0.6,188.0,0.03,10.6,14.4,"07:27:12",1
"20/10/29","07:40",0.0,11.8,96.5,1016.6,239.8,0.2,0.6,106.1,0.04,11.3,14.5,"07:31:36",1
"20/10/29","07:50",0.0,12.3,96.4,1016.6,297.8,0.6,1.0,301.0,0.05,11.8,14.7,"07:49:44",1
"20/10/29","08:00",0.0,13.1,96.3,1016.6,280.2,0.6,1.0,288.4,0.07,12.6,14.5,"07:55:28",1
"20/10/29","08:10",0.0,13.9,96.0,1016.6,284.3,0.5,0.9,286.7,0.09,13.3,14.8,"08:01:36",1
"20/10/29","08:20",0.0,14.1,95.8,1016.8,271.2,0.6,1.1,228.5,0.12,13.5,15.0,"08:13:44",1
"20/10/29","08:30",0.0,14.9,95.4,1016.8,277.3,0.3,0.8,116.0,0.15,14.2,15.3,"08:25:44",1
"20/10/29","08:40",0.0,14.9,94.4,1016.8,293.2,0.6,1.4,343.8,0.18,14.0,15.2,"08:33:44",1
"20/10/29","08:50",0.0,14.9,93.4,1017.1,248.0,0.5,1.1,247.5,0.21,13.9,15.4,"08:42:00",1
"20/10/29","09:00",0.0,15.4,94.4,1017.1,246.7,0.6,1.1,253.5,0.23,14.5,15.6,"08:53:52",1
"20/10/29","09:10",0.0,15.9,92.7,1017.1,220.1,0.3,1.1,141.2,0.25,14.8,15.6,"09:02:08",1
"20/10/29","09:20",0.0,16.6,92.1,1017.3,273.7,0.5,1.6,237.5,0.27,15.4,16.0,"09:12:00",1
"20/10/29","09:30",0.0,17.0,89.9,1017.3,36.8,0.5,1.4,119.3,0.32,15.4,15.9,"09:20:48",1
"20/10/29","09:40",0.0,17.3,87.8,1017.1,331.3,0.7,1.4,42.0,0.32,15.3,16.2,"09:35:36",1
"20/10/29","09:50",0.0,18.2,83.1,1016.8,339.1,0.5,1.3,1.4,0.35,15.3,16.5,"09:44:24",1
"20/10/29","10:00",0.0,18.6,74.6,1016.8,223.7,1.2,3.4,215.9,0.40,14.0,16.6,"09:59:28",1
"20/10/29","10:10",0.0,19.4,66.9,1016.1,327.8,1.5,4.2,348.7,0.40,13.1,17.0,"10:06:08",1
"20/10/29","10:20",0.0,19.9,62.6,1015.6,352.9,1.0,3.1,353.4,0.44,12.6,17.2,"10:13:12",1
"20/10/29","10:30",0.0,19.6,58.5,1015.6,4.8,1.6,4.4,356.1,0.38,11.3,17.2,"10:20:40",1
"20/10/29","10:40",0.0,20.5,57.7,1015.4,301.6,0.8,1.9,262.4,0.45,11.9,17.3,"10:34:16",1
"20/10/29","10:50",0.0,19.4,55.4,1015.2,0.2,2.0,4.9,349.9,0.28,10.3,17.4,"10:46:24",1
"20/10/29","11:00",0.0,19.0,57.5,1014.9,333.7,2.1,5.1,334.7,0.21,10.5,17.4,"10:51:52",1
"20/10/29","11:10",0.0,18.7,56.6,1015.2,335.7,2.0,3.9,342.6,0.16,10.0,17.6,"11:03:28",1
"20/10/29","11:20",0.0,18.8,56.3,1014.7,343.3,2.5,5.9,326.7,0.23,10.0,17.5,"11:17:28",1
"20/10/29","11:30",0.0,18.7,55.3,1014.7,352.7,2.3,4.5,345.3,0.21,9.6,17.6,"11:29:12",1
"20/10/29","11:40",0.0,19.5,56.2,1014.2,327.4,2.2,4.5,321.1,0.36,10.6,17.6,"11:32:24",1
"20/10/29","11:50",0.0,19.7,53.9,1014.5,332.3,2.7,5.9,338.8,0.39,10.2,17.8,"11:45:36",1
"20/10/29","12:00",0.0,20.0,52.6,1014.2,351.3,2.3,5.6,358.8,0.44,10.1,18.1,"11:54:48",1
"20/10/29","12:10",0.0,20.0,50.8,1014.5,357.2,1.7,4.1,14.0,0.36,9.5,18.1,"12:04:56",1
"20/10/29","12:20",0.0,20.4,48.5,1014.0,347.8,2.1,4.5,342.4,0.45,9.2,18.1,"12:19:12",1
"20/10/29","12:30",0.0,20.8,46.9,1014.2,336.4,2.5,5.0,323.7,0.47,9.1,18.4,"12:22:16",1
"20/10/29","12:40",0.0,19.4,50.7,1014.0,356.3,2.2,4.7,16.9,0.15,9.0,18.5,"12:34:00",1
"20/10/29","12:50",0.0,18.6,53.8,1013.8,352.6,2.5,5.7,8.8,0.11,9.1,18.2,"12:46:56",1
"20/10/29","13:00",0.0,18.6,54.3,1014.0,332.8,2.6,6.5,349.1,0.15,9.2,18.3,"12:55:04",1
"20/10/29","13:10",0.0,19.0,54.4,1013.8,335.8,2.3,4.7,355.1,0.28,9.6,18.4,"13:07:04",1
"20/10/29","13:20",0.0,19.8,50.1,1013.8,340.3,2.8,5.6,337.1,0.36,9.2,18.4,"13:15:36",1
"20/10/29","13:30",0.0,18.5,53.3,1014.0,350.6,2.6,5.7,349.1,0.09,8.9,18.2,"13:20:24",1
"20/10/29","13:40",0.0,18.9,54.3,1013.8,350.6,2.3,4.3,331.4,0.26,9.5,18.2,"13:31:04",1
"20/10/29","13:50",0.0,19.1,50.6,1013.3,359.2,2.6,5.4,343.9,0.27,8.7,18.3,"13:45:20",1
"20/10/29","14:00",0.0,18.8,52.1,1013.5,331.9,2.7,5.2,335.3,0.22,8.8,18.3,"13:50:08",1
"20/10/29","14:10",0.0,19.3,52.3,1013.5,333.8,2.8,7.2,338.9,0.31,9.3,18.3,"14:06:00",1
"20/10/29","14:20",0.0,19.0,51.7,1014.0,345.2,2.8,5.5,14.5,0.24,8.9,18.5,"14:14:24",1
"20/10/29","14:30",0.0,18.7,52.0,1013.8,331.4,2.2,4.5,308.0,0.16,8.7,18.4,"14:20:16",1
"20/10/29","14:40",0.0,19.1,52.7,1014.0,336.8,2.6,5.1,326.9,0.26,9.3,18.5,"14:30:08",1
"20/10/29","14:50",0.0,19.2,51.2,1013.8,348.4,2.3,4.7,348.5,0.26,8.9,18.2,"14:41:44",1
"20/10/29","15:00",0.0,18.9,51.8,1013.8,340.2,2.3,4.3,302.8,0.21,8.8,18.5,"14:57:44",1
"20/10/29","15:10",0.0,18.9,52.6,1014.0,355.1,1.7,5.4,349.1,0.19,9.0,18.6,"15:09:52",1
"20/10/29","15:20",0.0,18.6,53.6,1014.2,347.5,2.6,5.6,336.5,0.17,9.0,18.4,"15:11:28",1
"20/10/29","15:30",0.0,18.2,52.5,1014.2,3.0,2.3,5.1,6.1,0.15,8.4,18.4,"15:28:32",1
"20/10/29","15:40",0.0,17.8,55.0,1014.2,340.1,2.5,5.4,345.0,0.09,8.7,18.3,"15:32:16",1
"20/10/29","15:50",0.0,17.5,55.5,1014.2,347.8,2.1,4.0,355.4,0.07,8.5,18.2,"15:47:28",1
"20/10/29","16:00",0.0,17.0,56.7,1014.2,343.4,2.3,5.0,344.2,0.03,8.4,18.1,"15:52:24",1
"20/10/29","16:10",0.0,16.8,57.3,1014.5,340.2,2.6,6.4,348.5,0.05,8.4,18.0,"16:06:48",1
"20/10/29","16:20",0.0,16.8,58.8,1014.5,332.9,2.0,3.5,341.5,0.03,8.7,17.9,"16:13:28",1
"20/10/29","16:30",0.0,16.5,59.0,1014.7,336.5,2.5,4.5,12.4,0.02,8.5,17.8,"16:29:44",1
"20/10/29","16:40",0.0,16.3,59.8,1014.7,332.2,2.2,4.2,329.7,0.01,8.5,17.8,"16:36:24",1
"20/10/29","16:50",0.0,15.9,61.3,1014.5,332.6,2.2,4.1,336.3,0.00,8.5,17.7,"16:41:12",1
"20/10/29","17:00",0.0,15.5,62.5,1014.7,329.3,1.5,2.6,325.8,0.00,8.4,17.4,"16:54:08",1
"20/10/29","17:10",0.0,14.9,64.7,1014.5,329.2,1.5,2.6,339.7,0.00,8.4,17.5,"17:06:56",1
"20/10/29","17:20",0.0,14.3,66.4,1014.9,323.5,1.1,1.8,338.5,0.00,8.2,17.4,"17:13:52",1
"20/10/29","17:30",0.0,13.9,68.7,1014.7,328.7,1.3,2.4,343.5,0.00,8.3,17.2,"17:23:46",1
"20/10/29","17:40",0.0,13.4,70.1,1014.9,310.0,1.2,2.4,313.4,0.00,8.1,17.2,"17:32:50",1
"20/10/29","17:50",0.0,13.0,71.2,1014.9,321.9,1.3,2.1,319.4,0.00,8.0,17.0,"17:46:38",1
"20/10/29","18:00",0.0,12.8,72.4,1015.2,322.9,1.6,2.7,338.1,0.00,8.0,16.7,"17:55:16",1
"20/10/29","18:10",0.0,12.5,73.6,1015.2,324.8,1.3,2.0,335.4,0.00,8.0,16.6,"18:08:48",1
"20/10/29","18:20",0.0,12.3,75.0,1015.2,340.0,1.2,2.0,330.7,0.00,8.0,16.6,"18:10:36",1
"20/10/29","18:30",0.0,11.9,76.3,1014.7,321.7,1.2,1.9,333.3,0.00,7.9,16.4,"18:28:50",1
"20/10/29","18:40",0.0,11.2,77.5,1015.4,305.8,1.2,1.9,314.9,0.00,7.5,16.3,"18:30:32",1
"20/10/29","18:50",0.0,10.9,79.0,1015.2,317.9,0.8,2.7,296.3,0.00,7.4,16.3,"18:47:44",1
"20/10/29","19:00",0.0,10.7,80.1,1015.2,300.1,0.8,1.7,335.3,0.00,7.5,16.2,"18:52:56",1
"20/10/29","19:10",0.0,10.4,81.0,1015.2,295.8,1.3,1.8,311.6,0.00,7.3,16.1,"19:04:42",1
"20/10/29","19:20",0.0,10.3,82.2,1015.2,305.4,1.3,1.9,321.8,0.00,7.4,15.8,"19:18:16",1
"20/10/29","19:30",0.0,10.8,83.3,1015.4,320.4,1.8,3.2,336.6,0.00,8.1,15.7,"19:26:08",1
"20/10/29","19:40",0.0,10.8,83.9,1015.2,311.4,1.5,2.0,329.7,0.00,8.2,15.9,"19:33:44",1
"20/10/29","19:50",0.0,10.7,84.5,1015.4,288.4,1.2,1.7,293.1,0.00,8.2,15.8,"19:43:12",1
"20/10/29","20:00",0.0,10.6,84.9,1015.9,298.5,1.3,1.9,317.2,0.00,8.2,15.9,"19:54:16",1
"20/10/29","20:10",0.0,10.8,85.3,1015.9,309.3,1.7,2.9,317.2,0.00,8.5,15.6,"20:06:32",1
"20/10/29","20:20",0.0,10.7,85.5,1015.4,300.9,1.7,2.7,336.8,0.00,8.4,15.6,"20:10:48",1
"20/10/29","20:30",0.0,10.8,85.6,1015.6,315.7,1.8,2.6,324.4,0.00,8.5,15.7,"20:25:04",1
"20/10/29","20:40",0.0,10.8,85.8,1015.4,314.4,1.8,2.7,323.4,0.00,8.6,15.5,"20:38:40",1
"20/10/29","20:50",0.0,10.9,85.8,1015.9,318.0,1.8,2.6,326.0,0.00,8.7,15.5,"20:47:12",1
"20/10/29","21:00",0.0,10.9,85.7,1015.6,315.3,1.7,2.2,334.7,0.00,8.6,15.6,"20:51:20",1
"20/10/29","21:10",0.0,10.6,85.7,1015.9,302.5,1.5,2.1,329.2,0.00,8.3,15.4,"21:07:14",1
"20/10/29","21:20",0.0,10.4,85.8,1015.9,323.3,1.3,1.9,331.5,0.00,8.2,15.3,"21:11:28",1
"20/10/29","21:30",0.0,10.0,86.0,1015.6,313.5,1.2,1.8,331.8,0.00,7.8,15.0,"21:21:20",1
"20/10/29","21:40",0.0,10.0,86.4,1015.9,321.5,1.3,2.4,336.4,0.00,7.9,15.2,"21:36:40",1
"20/10/29","21:50",0.0,10.0,86.5,1015.6,301.8,1.2,1.9,324.1,0.00,7.9,15.2,"21:43:44",1
"20/10/29","22:00",0.0,10.1,86.8,1015.9,275.7,1.1,2.2,291.0,0.00,8.0,15.1,"21:59:44",1
"20/10/29","22:10",0.0,10.4,86.8,1015.6,290.3,1.3,2.5,323.5,0.00,8.3,15.1,"22:08:48",1
"20/10/29","22:20",0.0,10.6,86.6,1015.9,305.4,2.0,3.1,279.4,0.00,8.5,15.1,"22:15:46",1
"20/10/29","22:30",0.0,10.9,86.0,1015.9,326.8,2.3,4.2,330.0,0.00,8.7,15.3,"22:29:46",1
"20/10/29","22:40",0.0,10.7,85.5,1015.9,314.6,1.5,3.9,320.1,0.00,8.4,15.0,"22:32:32",1
"20/10/29","22:50",0.0,10.5,85.3,1015.9,295.8,1.5,2.5,330.3,0.00,8.2,15.0,"22:46:56",1
"20/10/29","23:00",0.0,10.3,85.2,1015.9,323.6,1.2,1.8,288.1,0.00,8.0,15.1,"22:50:08",1
"20/10/29","23:10",0.0,10.2,85.2,1015.9,313.9,1.2,1.9,340.3,0.00,7.9,15.1,"23:09:26",1
"20/10/29","23:20",0.0,10.2,85.3,1015.4,327.8,1.6,2.2,331.0,0.00,7.9,14.7,"23:13:36",1
"20/10/29","23:30",0.0,10.5,85.2,1015.6,325.3,2.0,3.3,341.9,0.00,8.2,14.8,"23:26:52",1
"20/10/29","23:40",0.0,10.5,85.0,1015.2,314.3,1.6,2.5,318.3,0.00,8.1,14.7,"23:32:48",1
"20/10/29","23:50",0.0,10.5,84.8,1015.4,307.7,1.5,2.4,328.3,0.00,8.1,14.8,"23:40:56",1
"20/10/29","24:00",0.0,10.3,84.7,1015.4,294.5,1.2,1.9,262.0,0.00,7.9,14.8,"23:54:56",1
